Location: Alumbaugh
(37.5976°N, 83.9299°W)
Time: 10:55:07
(UTC+00:00)

CUTE-I - Pass Details

Date: 06 April 2023
Orbit: 808 x 823 km, 98.7° (Epoch: 04 June)

Event Time Altitude Azimuth Distance (km) Brightness Sun altitude
Rises 00:40:25 0° 221° (SW) 3,318 ? -8.3°
Reaches altitude 10° 00:45:19 10° 262° (W) 2,399 ? -9.2°
Maximum altitude 00:46:08 10° 271° (W) 2,378 ? -9.4°
Drops below altitude 10° 00:46:56 10° 279° (W) 2,403 ? -9.5°
Sets 00:51:54 0° 320° (NW) 3,347 ? -10.5°
